| time (UTC) | temp F | wind direction | speed MPH | gust MPH | rain 1hr in | rain 24hr in | rain mn in | humidity % | barometer mb |
| 20260507130004 | 58 | 246 | 1.0 | 4.0 | 0.00 | 0.00 | 0.00 | 91 | 1016.8 |
| 20260507124510 | 58 | 270 | 2.0 | 4.0 | 0.00 | 0.00 | 0.00 | 91 | 1016.7 |
| 20260507123015 | 58 | 249 | 0.0 | 2.0 | 0.00 | 0.00 | 0.00 | 91 | 1016.6 |
| 20260507121515 | 58 | 309 | 0.0 | 4.0 | 0.00 | 0.00 | 0.00 | 91 | 1016.7 |
| 20260507120024 | 58 | 297 | 1.0 | 6.0 | 0.00 | 0.00 | 0.00 | 91 | 1016.7 |
| 20260507114526 | 58 | 309 | 2.0 | 7.0 | 0.00 | 0.00 | 0.00 | 92 | 1016.7 |
| 20260507113012 | 58 | 270 | 2.0 | 4.0 | 0.00 | 0.00 | 0.00 | 92 | 1016.6 |
| 20260507111515 | 58 | 252 | 1.0 | 4.0 | 0.00 | 0.00 | 0.00 | 92 | 1016.7 |
| 20260507110020 | 58 | 244 | 1.0 | 3.0 | 0.00 | 0.00 | 0.00 | 92 | 1016.7 |
| 20260507104523 | 58 | 321 | 1.0 | 3.0 | 0.00 | 0.00 | 0.00 | 92 | 1016.8 |
| 20260507103008 | 58 | 314 | 0.0 | 3.0 | 0.00 | 0.00 | 0.00 | 92 | 1016.9 |
| 20260507101513 | 58 | 282 | 1.0 | 3.0 | 0.00 | 0.00 | 0.00 | 92 | 1017.0 |
| 20260507100021 | 58 | 310 | 2.0 | 4.0 | 0.00 | 0.00 | 0.00 | 92 | 1017.2 |
| 20260507094526 | 57 | 281 | 2.0 | 4.0 | 0.00 | 0.00 | 0.00 | 92 | 1017.2 |
| 20260507093028 | 57 | 295 | 2.0 | 4.0 | 0.00 | 0.00 | 0.00 | 92 | 1017.3 |
| 20260507091511 | 58 | 288 | 0.0 | 4.0 | 0.00 | 0.00 | 0.00 | 92 | 1017.4 |
| 20260507090016 | 58 | 298 | 1.0 | 3.0 | 0.00 | 0.00 | 0.00 | 92 | 1017.5 |
| 20260507084521 | 58 | 312 | 0.0 | 3.0 | 0.00 | 0.00 | 0.00 | 92 | 1017.7 |
| 20260507083024 | 58 | 246 | 1.0 | 6.0 | 0.00 | 0.00 | 0.00 | 92 | 1017.9 |
| 20260507081512 | 58 | 304 | 1.0 | 5.0 | 0.00 | 0.00 | 0.00 | 92 | 1018.0 |
| 20260507080003 | 57 | 265 | 2.0 | 5.0 | 0.00 | 0.00 | 0.00 | 91 | 1017.9 |
| 20260507074504 | 57 | 277 | 1.0 | 4.0 | 0.00 | 0.00 | 0.00 | 91 | 1018.0 |
| 20260507073004 | 57 | 289 | 1.0 | 3.0 | 0.00 | 0.00 | 0.00 | 91 | 1018.0 |
| 20260507071506 | 57 | 309 | 0.0 | 3.0 | 0.00 | 0.00 | 0.00 | 91 | 1018.1 |
| 20260507070018 | 57 | 267 | 0.0 | 3.0 | 0.00 | 0.00 | 0.00 | 91 | 1018.2 |
| 20260507064516 | 58 | 288 | 2.0 | 4.0 | 0.00 | 0.00 | 0.00 | 91 | 1018.2 |
| 20260507063002 | 58 | 263 | 1.0 | 3.0 | 0.00 | 0.00 | 0.00 | 91 | 1018.3 |
| 20260507061504 | 58 | 288 | 1.0 | 4.0 | 0.00 | 0.00 | 0.00 | 91 | 1018.3 |
| 20260507060015 | 59 | 311 | 1.0 | 3.0 | 0.00 | 0.00 | 0.00 | 91 | 1018.3 |
| 20260507054511 | 59 | 344 | 1.0 | 4.0 | 0.00 | 0.00 | 0.00 | 91 | 1018.3 |
| 20260507053004 | 59 | 279 | 2.0 | 5.0 | 0.00 | 0.00 | 0.00 | 91 | 1018.2 |
| 20260507051504 | 59 | 336 | 2.0 | 4.0 | 0.00 | 0.00 | 0.00 | 90 | 1018.2 |
| 20260507050015 | 59 | 302 | 1.0 | 4.0 | 0.00 | 0.00 | 0.00 | 90 | 1018.3 |
| 20260507044511 | 59 | 314 | 2.0 | 5.0 | 0.00 | 0.00 | 0.00 | 90 | 1018.3 |
| 20260507043015 | 59 | 305 | 1.0 | 6.0 | 0.00 | 0.00 | 0.00 | 90 | 1018.2 |
| 20260507041503 | 59 | 298 | 1.0 | 7.0 | 0.00 | 0.00 | 0.00 | 89 | 1018.1 |
| 20260507040005 | 59 | 281 | 2.0 | 4.0 | 0.00 | 0.00 | 0.00 | 89 | 1018.0 |
| 20260507034507 | 59 | 261 | 2.0 | 11.0 | 0.00 | 0.00 | 0.00 | 88 | 1017.9 |
| 20260507033013 | 59 | 271 | 3.0 | 7.0 | 0.00 | 0.00 | 0.00 | 87 | 1017.9 |
| 20260507031524 | 60 | 279 | 1.0 | 8.0 | 0.00 | 0.00 | 0.00 | 87 | 1017.7 |
| 20260507030004 | 60 | 293 | 2.0 | 7.0 | 0.00 | 0.00 | 0.00 | 86 | 1017.6 |
| 20260507024507 | 60 | 286 | 2.0 | 9.0 | 0.00 | 0.00 | 0.00 | 85 | 1017.6 |
| 20260507023020 | 61 | 250 | 1.0 | 10.0 | 0.00 | 0.00 | 0.00 | 85 | 1017.4 |
| 20260507021513 | 62 | 247 | 3.0 | 7.0 | 0.00 | 0.00 | 0.00 | 84 | 1017.5 |
| 20260507020024 | 62 | 298 | 2.0 | 10.0 | 0.00 | 0.00 | 0.00 | 83 | 1017.3 |
| 20260507014516 | 62 | 265 | 5.0 | 11.0 | 0.00 | 0.00 | 0.00 | 82 | 1017.4 |
| 20260507013003 | 64 | 277 | 4.0 | 11.0 | 0.00 | 0.00 | 0.00 | 79 | 1017.4 |
| 20260507011529 | 65 | 252 | 6.0 | 11.0 | 0.00 | 0.00 | 0.00 | 77 | 1017.3 |
| 20260507010014 | 66 | 331 | 4.0 | 12.0 | 0.00 | 0.00 | 0.00 | 75 | 1017.4 |
| 20260507004520 | 67 | 240 | 4.0 | 12.0 | 0.00 | 0.00 | 0.00 | 75 | 1017.3 |
| 20260507003020 | 67 | 254 | 5.0 | 14.0 | 0.00 | 0.00 | 0.00 | 74 | 1017.3 |
| 20260507001527 | 67 | 256 | 4.0 | 15.0 | 0.00 | 0.00 | 0.00 | 75 | 1017.1 |
| 20260507000023 | 67 | 222 | 5.0 | 13.0 | 0.00 | 0.00 | 0.00 | 74 | 1017.1 |
| 20260506234523 | 67 | 263 | 6.0 | 14.0 | 0.00 | 0.00 | 0.00 | 74 | 1017.2 |
| 20260506233019 | 67 | 261 | 8.0 | 15.0 | 0.00 | 0.00 | 0.00 | 72 | 1017.2 |
| 20260506231523 | 68 | 267 | 8.0 | 15.0 | 0.00 | 0.00 | 0.00 | 72 | 1017.1 |
| 20260506230024 | 68 | 286 | 7.0 | 14.0 | 0.00 | 0.00 | 0.00 | 71 | 1017.2 |
| 20260506224526 | 69 | 250 | 8.0 | 13.0 | 0.00 | 0.00 | 0.00 | 71 | 1017.2 |
| 20260506223019 | 69 | 229 | 7.0 | 13.0 | 0.00 | 0.00 | 0.00 | 70 | 1017.5 |
| 20260506221522 | 68 | 245 | 8.0 | 13.0 | 0.00 | 0.00 | 0.00 | 69 | 1017.4 |
| 20260506220006 | 68 | 281 | 9.0 | 15.0 | 0.00 | 0.00 | 0.00 | 70 | 1017.5 |
| 20260506214526 | 69 | 265 | 7.0 | 14.0 | 0.00 | 0.00 | 0.00 | 70 | 1017.6 |
| 20260506213028 | 68 | 275 | 8.0 | 16.0 | 0.00 | 0.00 | 0.00 | 69 | 1017.6 |
| 20260506211524 | 68 | 240 | 10.0 | 18.0 | 0.00 | 0.00 | 0.00 | 69 | 1017.8 |
| 20260506210028 | 69 | 262 | 7.0 | 15.0 | 0.00 | 0.00 | 0.00 | 67 | 1017.9 |
| 20260506204510 | 68 | 225 | 11.0 | 15.0 | 0.00 | 0.00 | 0.00 | 67 | 1017.9 |
| 20260506203004 | 69 | 198 | 6.0 | 16.0 | 0.00 | 0.00 | 0.00 | 69 | 1018.0 |
| 20260506201503 | 68 | 264 | 6.0 | 14.0 | 0.00 | 0.00 | 0.00 | 68 | 1018.1 |
| 20260506200003 | 70 | 278 | 10.0 | 15.0 | 0.00 | 0.00 | 0.00 | 66 | 1018.4 |
| 20260506194507 | 68 | 276 | 8.0 | 13.0 | 0.00 | 0.00 | 0.00 | 69 | 1018.6 |
| 20260506193014 | 69 | 275 | 6.0 | 12.0 | 0.00 | 0.01 | 0.00 | 66 | 1018.7 |
| 20260506191503 | 69 | 286 | 7.0 | 12.0 | 0.00 | 0.01 | 0.00 | 64 | 1018.8 |
| 20260506190028 | 68 | 288 | 5.0 | 11.0 | 0.00 | 0.01 | 0.00 | 65 | 1018.9 |
| 20260506184535 | 68 | 249 | 4.0 | 12.0 | 0.00 | 0.01 | 0.00 | 65 | 1019.1 |
| 20260506183012 | 68 | 248 | 6.0 | 12.0 | 0.00 | 0.01 | 0.00 | 65 | 1019.2 |
| 20260506181516 | 68 | 271 | 4.0 | 8.0 | 0.00 | 0.01 | 0.00 | 66 | 1019.2 |
| 20260506180005 | 66 | 258 | 3.0 | 10.0 | 0.00 | 0.01 | 0.00 | 67 | 1019.2 |
| 20260506174522 | 67 | 246 | 4.0 | 9.0 | 0.00 | 0.01 | 0.00 | 68 | 1019.3 |
| 20260506173016 | 66 | 307 | 3.0 | 7.0 | 0.00 | 0.01 | 0.00 | 70 | 1019.2 |
| 20260506171529 | 65 | 240 | 3.0 | 8.0 | 0.00 | 0.01 | 0.00 | 72 | 1019.6 |
| 20260506170021 | 65 | 248 | 2.0 | 8.0 | 0.00 | 0.01 | 0.00 | 72 | 1019.4 |
| 20260506164525 | 63 | 267 | 3.0 | 9.0 | 0.00 | 0.01 | 0.00 | 74 | 1019.3 |
| 20260506163031 | 63 | 240 | 4.0 | 8.0 | 0.00 | 0.01 | 0.00 | 74 | 1019.3 |
| 20260506161508 | 62 | 333 | 3.0 | 7.0 | 0.00 | 0.01 | 0.00 | 75 | 1019.3 |
| 20260506160028 | 62 | 256 | 3.0 | 5.0 | 0.00 | 0.01 | 0.00 | 73 | 1019.2 |
| 20260506154531 | 62 | 245 | 1.0 | 4.0 | 0.00 | 0.02 | 0.00 | 75 | 1018.9 |
| 20260506153026 | 61 | 35 | 0.0 | 4.0 | 0.00 | 0.02 | 0.00 | 76 | 1019.1 |
| 20260506151529 | 60 | 72 | 1.0 | 4.0 | 0.00 | 0.02 | 0.00 | 77 | 1019.2 |
| 20260506150010 | 59 | 84 | 3.0 | 4.0 | 0.00 | 0.02 | 0.00 | 78 | 1019.2 |
| 20260506144533 | 58 | 32 | 2.0 | 4.0 | 0.00 | 0.02 | 0.00 | 79 | 1019.1 |
| 20260506143026 | 57 | 55 | 2.0 | 4.0 | 0.00 | 0.02 | 0.00 | 81 | 1019.1 |
| 20260506141506 | 56 | 55 | 2.0 | 4.0 | 0.00 | 0.02 | 0.00 | 81 | 1018.9 |
| 20260506140008 | 55 | 38 | 1.0 | 3.0 | 0.00 | 0.02 | 0.00 | 83 | 1018.9 |
| 20260506134528 | 55 | 60 | 1.0 | 3.0 | 0.00 | 0.02 | 0.00 | 83 | 1018.8 |
| 20260506133030 | 55 | 57 | 1.0 | 3.0 | 0.00 | 0.02 | 0.00 | 83 | 1018.6 |
| 20260506131532 | 54 | 62 | 1.0 | 3.0 | 0.00 | 0.02 | 0.00 | 83 | 1018.5 |